Wind_Speed
38 37 37 37 38 39 40 41 41 42 43 43 43 42 41 40 39 38 37 36 36 36 35 35 35 35 34 33 33 33 35 37 39 41 42 43 45 46 46 45 44 44 43 42 41 40 39 38 37 36 36 36 36 36 36 35 35 34 32 31 29 26 24 21 18 16 15 12 11 11 8 7 8 9 12 15 19 23 20 17 20 19 15 18 24 27 30 29
41 40 40 39 39 40 41 42 42 43 43 44 44 43 43 42 41 40 39 39 38 38 38 37 37 37 37 36 35 35 35 36 38 39 40 43 45 46 47 47 46 46 45 44 43 42 41 40 40 39 38 38 38 38 37 37 37 36 35 34 32 31 28 26 22 18 17 16 12 13 12 10 13 15 18 21 21 19 17 16 16 15 14 19 26 29 29 25
44 44 43 42 42 41 42 43 43 44 44 44 44 44 44 44 43 42 41 41 40 40 40 40 40 40 39 39 38 38 37 37 38 37 38 41 43 45 46 47 47 47 47 46 46 44 43 42 41 40 40 39 39 38 38 38 38 37 37 36 35 33 31 30 27 21 19 19 17 16 15 13 15 18 20 21 21 17 16 17 15 14 17 23 27 27 25 25
47 47 46 46 45 44 44 44 45 45 46 46 46 46 45 45 45 44 43 43 43 42 42 42 42 42 42 41 41 41 40 40 38 37 38 40 40 42 45 47 48 48 49 48 47 45 45 44 43 42 41 41 40 39 39 39 38 38 38 37 37 36 35 34 31 25 21 21 21 18 17 15 15 17 18 18 19 20 21 22 19 18 22 26 26 25 26 27
49 49 49 49 48 48 47 47 46 46 47 47 47 47 47 47 46 46 45 45 45 44 44 44 44 44 44 44 43 43 42 43 40 37 39 40 39 40 42 45 48 49 49 49 48 47 46 45 44 44 44 43 42 41 41 40 40 40 40 39 38 37 38 37 34 30 27 25 23 22 21 17 16 19 20 19 21 23 23 24 23 22 24 24 24 26 27 27
52 52 52 52 51 51 50 50 49 48 48 48 48 48 48 48 48 47 47 47 47 47 46 46 46 46 46 46 46 45 45 46 42 41 42 40 40 40 39 42 46 48 49 49 49 48 48 47 46 46 45 44 44 43 42 42 43 43 42 41 40 40 40 39 37 34 34 31 26 25 24 20 19 21 23 24 24 24 23 24 25 25 24 23 25 27 25 24
55 55 55 54 54 53 53 53 52 51 51 50 50 50 50 50 49 49 49 49 49 48 48 48 48 48 48 48 48 47 48 48 46 45 44 41 41 42 40 40 42 46 48 48 49 49 49 49 48 47 46 46 45 44 44 44 45 45 45 43 42 42 42 41 39 37 36 34 29 27 26 24 22 22 25 26 24 24 25 26 25 25 25 24 25 25 22 22
58 58 57 57 57 56 56 55 55 54 54 53 52 52 52 51 51 51 50 50 50 50 50 50 50 50 50 50 50 49 50 52 48 46 46 44 44 44 42 42 41 44 46 47 48 48 49 50 50 49 48 48 47 46 46 46 47 47 46 45 45 45 44 43 42 40 38 35 33 32 30 27 25 24 25 24 25 27 27 25 23 24 25 24 24 22 21 23
61 61 60 60 60 59 59 58 58 57 57 56 55 54 54 53 53 53 52 52 51 51 51 51 51 51 51 51 52 52 54 54 49 47 50 48 47 46 45 44 43 43 44 46 47 48 49 50 50 50 50 49 48 48 48 48 49 48 47 47 47 47 46 45 44 43 40 38 37 37 34 30 28 28 28 26 25 26 25 23 23 24 24 24 23 21 20 23
64 64 64 63 63 62 62 62 61 60 60 59 58 57 56 55 55 55 54 54 53 53 53 53 53 53 53 53 53 55 56 55 51 51 53 51 49 49 48 46 45 44 44 45 46 47 48 48 49 50 50 50 50 50 50 51 50 49 49 48 48 48 47 45 45 44 43 40 38 38 35 33 34 33 32 30 27 24 24 24 25 24 23 22 21 19 20 22
67 67 67 66 66 65 65 64 64 63 63 62 61 60 59 58 57 57 56 56 55 55 54 54 54 54 55 54 55 57 57 56 54 54 55 53 52 52 51 49 48 47 46 45 46 47 47 47 47 48 49 51 51 52 52 52 50 50 49 49 48 48 48 47 45 45 44 42 40 38 37 36 36 36 35 34 32 28 26 27 26 23 21 21 20 19 19 20
69 69 70 69 69 68 68 67 67 66 66 65 65 64 63 62 60 59 58 58 57 57 57 56 56 56 56 56 57 59 57 56 57 57 56 55 54 54 54 52 51 49 49 47 47 46 46 46 46 46 48 49 50 52 53 53 52 52 51 50 49 49 49 48 46 45 44 43 42 40 38 35 34 35 35 35 33 30 28 27 24 22 22 22 21 19 19 20
71 71 71 72 71 71 71 70 70 69 69 68 67 67 66 65 64 63 61 60 60 59 59 58 58 57 57 58 59 59 58 58 59 58 58 58 57 56 56 55 54 52 51 50 49 48 47 46 46 46 46 47 49 50 52 53 54 54 54 52 51 50 50 49 48 46 45 43 43 43 40 38 36 34 34 34 34 32 29 26 24 23 24 23 22 21 20 21
71 73 73 73 73 73 74 73 73 73 72 71 70 69 68 68 67 66 65 64 62 61 61 60 60 59 59 60 60 60 60 60 60 59 60 59 59 58 58 57 56 55 54 53 52 50 49 48 47 47 46 47 48 49 50 52 53 54 54 53 52 52 51 50 49 48 47 45 44 44 44 43 42 40 38 37 36 34 32 30 27 25 24 24 22 22 21 21
70 72 74 75 75 75 75 76 76 76 75 74 74 72 71 71 70 69 68 67 66 64 63 62 62 61 61 62 61 61 61 61 61 61 61 61 61 60 60 59 59 58 57 55 54 53 52 50 49 49 48 47 47 48 49 49 51 53 53 52 53 53 52 51 50 49 48 47 46 46 46 46 47 46 44 42 40 38 35 33 30 27 26 24 22 22 22 21
69 70 72 75 76 77 77 77 78 78 78 77 77 76 75 73 72 72 71 70 69 68 66 65 64 63 63 63 62 62 62 62 63 63 62 62 62 62 62 62 61 61 60 58 57 56 55 53 52 51 49 48 48 48 47 47 50 52 52 52 52 54 53 51 51 51 50 50 48 47 46 46 47 46 45 43 42 39 36 34 31 29 28 25 23 22 21 19
70 70 71 73 76 78 78 78 79 80 80 80 80 79 78 77 76 75 74 73 72 71 69 68 67 66 65 64 64 63 64 64 64 64 64 64 64 64 64 64 64 63 61 60 59 59 57 56 55 53 51 50 50 48 47 49 52 52 51 51 52 53 53 52 51 51 51 50 50 48 46 46 46 45 44 42 41 38 37 36 34 32 30 27 25 23 20 19
72 72 72 72 74 77 79 80 80 81 81 82 82 81 81 80 78 78 77 76 74 73 72 71 70 68 67 66 66 66 66 66 65 65 65 65 65 66 66 66 65 64 64 62 62 61 60 59 58 56 53 53 52 51 51 53 53 52 50 51 52 52 52 51 50 50 50 49 49 48 46 45 45 44 43 42 40 38 37 37 35 33 32 29 26 24 22 20
71 74 75 74 74 76 78 80 81 82 82 83 83 83 83 82 81 81 80 79 77 76 75 74 73 71 70 69 68 68 67 67 67 67 67 67 67 67 68 67 67 66 66 65 64 64 62 61 59 57 56 57 56 55 55 55 53 51 50 50 50 50 49 50 49 48 47 48 48 48 45 43 44 43 41 40 40 38 37 37 36 34 34 32 28 27 24 20
64 71 75 76 76 77 78 79 81 83 83 84 84 84 84 84 83 83 82 82 81 79 78 77 76 74 72 72 71 70 69 69 69 69 69 68 68 68 68 68 68 68 68 67 67 66 65 63 60 60 61 61 60 59 58 56 53 52 50 49 50 50 48 49 49 45 45 46 46 47 45 42 43 42 39 38 38 38 37 36 36 35 34 32 29 27 24 21
54 62 69 74 77 78 79 79 80 82 84 85 85 85 85 84 85 85 85 84 83 82 81 80 78 77 76 75 74 72 72 71 70 71 70 70 70 70 69 69 69 69 69 69 69 68 66 63 63 64 65 64 62 61 60 57 55 53 51 50 51 50 48 48 48 45 44 44 44 44 42 40 40 39 36 35 36 36 35 34 34 35 34 32 29 27 25 22
47 52 58 66 73 77 79 80 80 81 83 85 86 86 86 85 85 86 86 86 85 84 83 83 81 80 79 78 77 75 74 73 72 72 72 72 72 71 70 70 69 70 71 71 70 69 67 65 66 68 67 66 65 64 62 60 58 56 53 52 51 50 49 50 50 47 44 43 44 43 40 38 37 35 33 32 32 33 33 32 33 34 34 31 29 26 25 23
43 45 49 55 63 70 76 79 80 81 81 83 85 87 87 86 86 86 86 86 86 86 85 85 84 83 82 81 80 78 77 77 75 74 74 74 73 72 71 71 71 71 71 71 71 70 69 69 70 70 69 68 67 66 64 62 60 58 56 54 53 52 53 53 51 48 44 43 43 41 38 35 32 31 31 29 30 31 32 31 32 33 32 31 29 27 25 23
41 42 44 47 52 59 67 73 78 80 81 82 83 85 87 88 87 87 86 86 87 86 86 86 85 86 85 85 84 82 81 80 77 76 77 76 74 73 73 73 73 72 72 72 72 72 71 72 73 72 71 70 69 68 66 64 63 61 59 57 56 56 56 55 51 48 44 42 42 39 35 31 28 28 29 27 29 31 31 31 31 31 31 30 30 28 26 24
39 41 43 44 46 50 56 64 70 76 79 81 82 83 85 87 88 88 87 87 87 86 86 86 86 87 87 87 87 86 85 83 80 80 80 78 76 75 75 75 75 74 74 74 74 73 73 74 74 74 73 73 71 70 68 66 65 63 61 60 59 59 59 57 53 49 45 42 41 38 34 30 29 29 28 27 28 31 32 32 31 29 29 30 30 29 26 25
37 39 41 43 45 46 49 54 60 67 74 78 81 82 83 84 87 88 88 88 87 86 87 86 86 87 88 88 88 88 87 85 84 85 84 81 80 78 78 78 77 76 76 76 75 74 74 75 75 75 75 75 73 72 70 69 67 66 64 63 62 62 61 60 56 51 46 43 41 38 34 32 31 30 28 27 28 30 32 32 31 29 29 30 30 30 28 27
38 39 39 41 43 45 46 48 52 57 64 72 77 80 82 83 84 86 88 90 88 87 87 87 86 87 88 88 89 89 88 88 88 87 86 85 84 82 82 81 80 79 79 78 76 75 75 75 76 76 76 76 75 73 72 71 69 68 67 66 65 65 64 63 59 53 48 45 42 40 37 35 32 30 29 29 28 30 32 32 31 30 29 29 30 30 30 28
39 40 40 40 42 43 45 46 47 50 55 63 70 75 79 80 82 83 85 88 89 87 88 88 88 88 87 88 89 89 89 89 89 88 89 89 87 87 86 84 84 83 81 78 76 75 76 76 77 77 77 76 75 75 74 73 71 70 70 69 68 67 66 65 62 56 51 47 44 42 40 36 34 33 32 31 30 30 32 32 32 31 30 30 30 31 31 30
39 40 41 41 42 43 44 44 45 47 49 55 62 68 73 77 79 81 83 85 86 87 89 90 89 88 88 88 89 89 89 89 88 88 90 91 90 90 90 88 88 86 84 81 79 78 78 78 77 76 75 75 75 76 75 74 74 73 73 71 70 70 68 66 64 59 54 49 46 45 43 39 37 36 34 33 31 33 35 35 34 34 34 33 32 32 32 31
37 39 40 41 42 43 44 43 43 45 46 49 54 60 66 71 75 78 81 83 83 84 88 90 89 89 89 89 89 89 88 88 87 88 91 92 91 92 92 91 91 91 88 86 83 82 81 80 78 77 76 76 77 76 75 75 75 75 75 74 73 71 69 69 67 63 57 52 50 49 46 43 40 37 36 35 34 35 37 37 36 36 37 35 35 34 34 32
36 36 38 39 42 43 44 43 43 44 46 47 49 53 59 65 70 74 78 81 81 83 84 85 86 89 92 91 90 89 88 88 88 88 91 91 91 92 93 93 94 94 92 89 88 87 85 83 81 80 79 78 79 78 77 76 76 76 77 75 74 72 72 71 68 65 60 56 55 53 51 48 43 40 40 39 38 37 37 39 39 39 39 39 37 36 35 33
34 34 35 37 40 42 44 44 43 44 45 46 48 50 53 58 65 70 74 77 79 79 79 79 82 87 92 93 92 90 89 89 89 90 91 90 90 92 93 95 96 95 93 92 91 90 88 86 84 82 80 80 80 80 79 78 78 79 77 75 75 74 74 72 70 67 64 61 59 58 55 50 46 45 45 42 40 39 39 41 41 41 42 41 40 39 36 33
33 32 32 34 37 39 42 43 43 45 46 46 48 49 51 54 58 63 68 70 72 74 75 77 82 86 90 92 91 89 90 91 91 91 91 90 91 93 95 97 95 93 93 93 92 91 91 89 87 85 84 84 83 82 81 81 81 80 78 77 77 77 77 75 72 70 67 65 64 62 58 52 49 49 48 44 42 42 40 41 42 42 44 43 41 40 37 34
32 30 30 31 33 36 39 41 43 45 46 47 48 49 50 51 53 55 59 62 66 70 74 79 83 86 87 88 88 88 90 92 92 91 91 91 93 95 96 95 93 91 92 92 92 92 92 92 92 91 90 89 87 85 84 83 82 81 79 78 79 79 78 76 74 72 70 69 68 67 62 55 52 52 51 48 45 44 42 42 44 44 45 44 43 42 39 37
32 30 29 29 30 32 35 37 40 43 46 48 49 49 49 50 50 49 51 57 63 69 75 79 82 84 84 85 85 86 88 89 89 90 92 93 95 97 96 93 90 90 91 91 91 91 92 93 95 94 93 91 89 87 86 85 83 81 80 79 79 80 79 77 75 73 73 72 70 68 63 58 56 55 55 51 47 46 45 44 46 46 45 45 44 43 42 39
33 29 28 28 28 29 31 34 36 40 43 46 48 49 48 49 49 49 49 53 60 66 71 74 77 81 83 84 84 83 84 85 85 87 91 94 98 99 96 92 90 89 91 91 92 92 92 94 96 95 95 94 92 92 91 88 86 84 82 81 80 81 80 78 76 76 76 74 72 70 66 62 60 59 58 54 50 48 47 46 47 46 46 47 46 45 44 42
34 30 28 27 27 27 29 31 33 36 40 43 45 47 48 48 49 50 51 52 55 60 65 69 73 77 81 82 81 81 83 84 83 85 90 94 99 100 95 92 91 90 92 93 93 93 93 95 97 97 96 97 96 95 94 92 90 87 85 84 83 83 83 80 78 78 77 75 74 73 70 67 64 62 61 58 54 52 50 50 49 47 47 49 49 48 46 45
35 31 27 27 27 26 27 29 31 33 35 38 41 43 45 48 50 51 52 52 54 57 59 63 68 74 78 79 79 81 84 85 84 86 90 94 98 98 92 91 92 92 94 95 95 94 94 96 99 98 97 98 97 96 96 95 94 92 90 88 87 86 85 83 80 79 78 77 76 75 73 70 67 65 64 62 59 57 55 54 52 49 50 52 52 50 49 48
36 31 26 25 26 26 26 27 29 30 32 34 36 39 42 46 49 51 52 52 54 55 55 57 62 68 74 76 77 80 83 84 85 88 91 94 97 96 91 90 92 92 94 97 97 97 97 98 100 99 98 98 97 96 96 96 97 97 95 93 91 89 87 84 81 79 78 78 77 77 75 73 71 68 67 66 64 62 59 57 55 53 52 53 52 52 52 52
36 32 27 24 24 25 25 26 26 28 30 32 34 35 38 42 46 48 51 52 53 55 56 57 57 60 66 69 72 76 79 83 86 88 92 95 96 95 92 91 92 92 95 98 100 100 100 99 100 100 99 98 99 99 99 99 100 101 99 97 96 94 91 87 84 81 79 78 78 78 77 76 74 71 71 71 69 67 64 60 58 57 54 54 53 53 55 55
35 32 27 23 22 23 24 25 25 26 28 30 32 33 36 38 41 44 47 50 52 54 56 57 56 57 60 62 65 70 74 79 85 88 92 94 95 93 92 91 92 93 95 99 101 101 100 99 99 101 101 99 100 100 101 101 101 101 101 100 99 98 95 92 89 86 83 81 80 80 78 77 77 75 75 76 74 71 69 64 61 60 58 56 56 56 58 57
35 31 27 23 21 20 22 24 24 24 26 28 29 31 34 36 38 40 43 46 49 53 55 56 56 58 59 59 61 63 66 71 79 84 88 89 90 90 90 91 93 93 95 99 101 101 100 99 100 102 102 101 100 100 101 101 100 99 99 100 101 100 99 98 95 92 88 85 83 82 80 79 79 78 78 78 77 74 72 67 65 64 61 59 59 59 61 59
35 30 26 22 20 19 20 22 22 23 25 27 28 30 33 34 36 39 42 44 46 49 52 54 56 58 59 60 61 62 62 65 70 76 81 83 84 85 87 87 89 91 94 97 100 101 102 102 101 102 104 103 101 101 102 103 102 100 100 102 103 104 103 102 99 95 90 86 85 84 82 81 82 82 81 82 81 78 76 73 70 68 66 64 62 62 63 60
34 29 25 22 19 18 18 19 21 22 24 26 28 30 32 33 35 38 40 42 45 47 49 51 54 57 58 60 62 62 63 64 67 70 74 76 78 80 81 81 83 87 90 93 96 99 101 102 101 102 104 104 103 104 105 106 106 106 106 106 107 107 106 105 102 98 92 88 87 85 82 83 87 88 87 86 85 83 80 78 76 74 71 68 66 64 64 61
34 29 24 21 18 17 16 17 18 20 23 24 26 28 30 31 34 37 39 41 43 45 47 49 52 54 56 58 61 62 63 65 67 69 70 71 72 74 75 76 79 83 87 89 92 96 100 101 101 102 104 105 105 106 108 108 108 108 108 108 108 108 108 107 105 100 95 92 90 87 83 84 88 91 91 88 87 86 84 83 81 78 75 72 70 68 66 63
34 28 23 21 19 17 15 15 17 18 20 21 23 26 27 30 32 35 37 40 42 44 46 48 50 52 54 56 58 60 61 63 66 68 69 71 70 70 71 72 76 80 84 87 90 94 98 99 99 100 103 105 106 108 109 109 108 107 109 108 108 109 110 109 106 102 99 95 92 89 86 85 89 92 91 89 88 88 86 85 83 81 77 74 72 70 68 65
34 29 24 20 18 16 15 15 15 16 17 19 21 23 25 27 29 32 35 37 40 42 44 46 48 50 52 54 56 57 59 60 63 65 67 69 70 70 70 71 73 76 80 84 88 91 94 96 96 97 100 102 106 108 109 110 109 109 109 109 108 110 111 110 106 103 101 98 94 92 89 88 91 93 91 89 88 87 87 86 85 83 78 73 71 71 70 68
35 30 25 21 18 16 15 14 14 15 16 17 18 20 22 24 26 29 31 34 36 39 41 43 46 47 50 52 53 55 57 58 60 63 64 66 68 70 70 72 73 75 78 81 84 88 91 92 93 95 97 99 104 107 109 110 109 109 109 109 110 112 113 111 108 105 103 101 98 97 94 92 93 93 92 90 89 88 87 87 87 84 79 76 75 74 72 69
37 32 26 21 19 16 14 13 13 13 14 15 17 18 20 22 24 26 28 30 33 36 38 40 43 44 46 49 51 53 55 56 59 61 63 65 67 69 70 72 74 75 78 80 83 85 87 89 92 93 95 97 101 105 108 109 109 109 109 108 110 113 114 111 108 106 104 102 101 101 99 97 96 95 93 93 91 89 88 88 88 86 83 80 79 77 74 71
40 35 28 23 20 17 15 14 13 13 14 14 15 17 19 21 23 25 27 29 31 33 35 36 39 41 44 47 48 50 52 55 57 59 61 63 65 67 69 70 72 74 75 78 81 83 84 86 90 91 92 94 98 103 106 108 108 109 109 108 109 112 113 111 109 107 105 103 103 104 103 102 102 99 95 95 94 91 90 90 89 88 85 83 81 79 77 74
42 37 32 27 22 19 16 15 13 13 13 13 14 16 18 20 22 24 26 27 28 30 32 34 37 40 42 43 45 47 49 51 54 56 58 60 61 63 65 66 69 70 71 73 77 80 82 84 87 89 88 90 95 101 104 106 108 109 109 109 110 111 112 111 110 109 109 107 106 107 107 107 107 104 99 98 97 94 93 92 91 89 88 86 85 84 81 78
45 40 35 30 26 22 19 17 15 14 13 13 14 15 16 18 20 21 23 24 26 28 31 33 35 37 38 39 41 44 46 48 50 52 53 55 56 57 59 61 64 66 67 69 73 77 79 81 84 86 85 86 91 98 102 105 108 107 107 108 110 112 113 112 111 112 112 111 110 110 109 110 111 109 104 101 100 98 96 94 93 91 91 90 89 87 85 82
Wind_Direction
259 258 256 254 252 250 248 246 245 244 244 244 245 245 245 245 243 241 238 235 232 230 227 225 223 223 224 227 227 226 224 222 221 221 221 222 222 221 221 221 221 221 222 223 224 224 223 223 223 223 224 224 225 226 226 227 228 228 229 231 231 231 229 227 229 234 230 225 245 253 236 231 240 251 266 265 267 276 284 290 303 317 319 324 331 329 329 330
260 258 257 255 253 251 249 248 246 245 244 244 244 244 244 244 243 241 238 236 233 231 229 227 225 223 223 225 227 228 227 225 222 221 221 223 223 223 223 222 221 221 222 222 223 223 223 224 225 225 225 225 226 227 228 228 230 230 231 232 232 234 233 232 233 235 234 223 224 238 230 231 247 242 236 239 252 267 274 284 303 314 307 312 323 327 330 331
260 258 257 256 255 253 251 249 248 246 245 244 244 243 243 242 242 241 239 236 234 232 230 228 227 225 223 224 226 228 228 228 225 222 222 223 224 224 224 224 223 222 222 222 223 223 224 224 225 227 228 229 228 228 230 231 232 233 234 235 234 235 236 236 235 234 239 233 225 232 235 241 251 244 236 243 254 259 266 280 294 296 293 306 318 325 329 324
259 258 257 256 255 254 253 251 250 248 246 245 244 243 242 242 241 240 239 237 235 233 231 229 228 226 225 223 224 226 228 229 226 224 225 224 224 225 226 225 224 224 224 223 223 223 224 224 225 226 228 229 230 230 231 232 234 235 236 237 236 237 239 240 238 235 239 240 235 239 246 247 247 246 245 254 259 256 266 278 288 293 296 307 315 320 321 314
259 258 256 256 255 254 253 252 251 250 248 247 245 244 242 242 241 240 239 238 236 234 232 230 229 227 226 224 224 225 227 229 227 227 227 224 224 224 226 227 226 225 225 225 224 224 224 225 225 225 227 228 230 231 232 233 234 235 236 237 238 238 240 241 239 236 237 240 239 242 250 247 248 258 257 260 264 263 271 279 288 296 301 308 313 317 318 312
260 258 256 255 254 253 252 252 252 251 250 249 247 245 244 242 241 240 239 238 236 235 233 232 229 228 227 225 225 224 226 228 226 227 228 226 225 224 224 228 228 227 226 226 225 225 226 225 225 225 226 228 229 230 231 233 234 235 236 237 237 237 238 240 240 238 238 242 241 242 247 244 251 265 263 263 267 265 269 275 283 294 301 308 314 318 318 314
260 259 257 255 254 252 252 251 251 250 250 249 248 247 246 244 242 241 239 238 237 235 234 233 231 228 227 226 226 225 226 227 225 227 229 227 227 225 223 226 229 229 227 226 226 226 226 226 226 225 226 227 228 229 230 232 233 235 236 237 238 238 239 240 241 240 239 241 240 240 244 242 245 257 261 262 264 265 269 274 281 293 299 305 311 315 315 314
260 259 257 256 254 252 251 250 249 249 249 249 248 248 247 246 244 242 240 239 237 236 235 233 232 230 228 226 226 226 227 227 224 225 229 228 229 227 224 224 226 229 229 227 227 226 227 227 227 226 226 227 227 228 229 231 233 234 235 237 238 239 240 240 241 241 240 239 238 238 240 239 238 246 258 260 262 266 270 277 286 295 299 301 304 306 308 312
260 259 257 256 255 253 251 250 248 248 248 247 247 247 247 246 245 244 242 240 238 237 235 234 232 231 229 227 226 226 227 228 223 224 227 227 228 229 226 225 225 227 229 228 228 227 227 227 227 228 228 228 228 228 229 230 232 233 234 236 237 239 239 240 241 242 241 239 239 240 238 237 238 246 255 255 257 265 271 283 293 297 299 298 297 298 302 309
259 258 257 256 254 253 252 250 249 247 247 246 246 246 245 245 245 244 243 242 240 238 236 235 233 232 230 229 227 227 228 228 224 223 227 226 227 229 229 227 225 225 228 229 228 227 227 227 227 228 228 229 229 229 230 230 231 232 233 235 237 239 240 241 242 243 242 241 241 242 240 242 247 250 251 249 251 261 273 286 294 296 296 294 295 296 298 307
258 257 256 255 254 253 252 251 249 248 247 246 245 244 244 244 244 243 243 242 241 239 238 236 235 233 232 230 229 229 228 228 226 224 226 226 226 228 229 228 227 226 226 227 229 228 228 228 228 228 228 229 229 230 231 231 231 232 233 234 236 238 240 240 241 243 243 242 241 242 243 246 252 250 247 247 250 258 272 285 291 289 288 292 296 296 297 303
257 256 255 254 253 252 252 251 250 248 247 246 245 244 243 243 242 242 242 242 241 240 239 237 236 234 233 231 230 230 229 228 227 226 226 226 225 227 228 229 229 228 227 226 228 228 228 227 227 228 228 229 229 230 231 232 232 232 232 233 234 236 239 239 239 241 243 243 242 242 241 240 246 246 244 250 255 261 271 280 283 279 281 289 293 293 292 295
257 255 254 253 252 251 251 250 250 249 248 247 245 244 243 242 242 241 241 240 240 239 239 238 237 235 234 233 232 232 230 229 228 227 227 227 226 226 228 228 228 229 229 227 227 228 228 227 227 227 227 228 229 229 231 232 232 233 232 232 234 235 238 239 239 240 241 242 243 243 239 233 237 242 247 255 260 264 270 275 275 275 279 284 286 286 284 288
257 255 253 252 250 250 249 249 249 248 248 247 246 244 244 243 242 241 240 240 239 239 238 238 237 236 235 235 234 233 232 230 229 228 227 227 227 227 227 228 228 228 229 229 228 227 227 227 227 226 226 227 229 230 231 232 232 233 233 233 234 235 237 239 241 241 241 241 241 243 243 239 241 247 253 257 261 266 270 272 272 273 278 280 281 281 280 285
259 256 253 251 250 248 247 247 247 247 246 246 246 245 244 243 242 241 241 240 239 238 238 237 237 236 235 235 234 233 233 232 231 230 228 228 228 228 227 228 228 228 228 229 229 228 227 227 227 226 226 226 228 229 231 232 233 233 233 233 234 235 236 237 240 242 243 243 242 242 245 246 248 252 254 255 260 266 269 268 267 269 274 276 277 277 278 282
261 256 253 251 249 247 246 245 245 245 245 244 244 244 244 243 242 241 241 240 239 238 238 237 236 236 235 235 235 234 234 233 232 232 230 229 229 228 228 228 228 228 228 228 229 229 229 228 228 227 226 226 227 228 229 231 232 233 233 233 233 234 234 235 238 240 242 243 244 243 244 247 250 252 255 256 259 262 264 263 262 265 268 270 273 274 274 276
260 257 253 250 248 246 245 244 244 243 243 243 243 243 243 243 242 241 241 240 239 239 238 237 237 236 235 235 235 234 234 234 233 232 232 231 229 229 228 228 228 228 228 228 229 230 230 229 229 228 227 227 227 227 227 229 232 233 233 233 233 234 234 234 236 238 240 242 243 244 244 246 249 251 254 256 258 258 258 258 259 261 262 264 267 267 268 268
255 254 252 249 247 245 244 243 242 242 242 242 241 241 241 241 241 241 241 240 239 239 238 238 237 236 235 235 235 234 234 234 233 233 232 232 231 230 229 228 228 228 228 228 228 229 229 230 230 229 228 228 227 226 226 228 231 232 232 234 234 234 235 234 235 236 238 240 242 243 243 246 249 250 252 254 256 255 255 256 257 258 257 258 261 261 262 259
251 251 250 249 246 244 242 241 241 241 241 241 241 240 240 239 240 240 240 240 239 239 238 238 237 236 236 235 235 234 234 234 234 233 233 232 231 231 230 229 229 228 228 228 228 228 229 229 230 230 230 229 228 227 227 228 230 231 232 234 235 235 235 235 234 235 237 239 241 242 242 244 246 248 249 250 252 252 253 253 254 254 254 254 255 256 255 249
252 250 248 247 246 245 243 241 240 239 240 240 240 240 239 239 238 239 239 239 239 239 238 238 237 236 236 235 235 234 234 234 234 233 233 232 232 231 231 230 229 229 228 228 228 228 228 229 229 230 230 230 230 229 229 229 229 230 231 233 235 235 235 236 235 234 236 238 239 240 240 241 243 245 246 247 248 249 250 250 251 251 250 249 250 250 247 240
257 253 250 248 246 245 244 242 241 239 239 239 239 239 239 238 238 238 237 238 238 238 238 238 237 237 236 236 235 234 234 234 234 234 233 233 232 232 231 231 230 230 229 228 228 228 228 228 228 229 230 231 231 231 230 230 229 229 229 231 235 236 235 236 236 233 233 236 238 239 239 239 241 243 243 244 246 246 246 246 246 246 245 243 243 244 241 234
262 258 254 250 248 246 245 244 242 241 239 238 238 239 239 238 238 238 237 237 237 237 237 237 237 237 236 236 235 234 234 234 234 234 234 233 233 232 232 232 231 231 231 230 229 229 228 228 228 229 230 230 231 232 232 231 230 230 229 230 232 235 235 235 235 232 231 233 236 238 237 238 240 240 239 240 242 242 240 239 238 238 238 237 237 237 234 225
268 263 259 255 251 248 246 245 244 243 242 240 239 238 238 238 238 238 237 237 236 236 236 236 237 237 237 236 235 235 234 234 233 234 235 234 234 233 232 232 231 231 231 231 230 229 228 227 228 229 230 230 231 231 232 232 232 231 229 229 230 232 234 234 235 234 231 232 235 236 236 236 236 237 236 234 236 236 235 233 231 231 231 230 231 229 225 219
272 267 263 259 255 251 248 246 245 244 243 242 241 239 238 238 238 238 238 237 237 236 236 236 236 236 236 236 236 235 235 234 233 234 234 234 234 234 233 232 231 231 231 231 231 229 228 228 228 229 230 230 230 231 231 231 232 232 231 230 230 231 233 235 235 234 231 230 233 234 232 230 229 231 232 228 229 231 230 227 224 225 226 227 229 225 218 216
276 271 266 263 259 255 251 247 245 244 243 243 242 241 239 238 238 238 238 238 238 237 236 235 235 236 236 236 236 235 235 234 234 234 234 234 234 234 234 234 232 231 230 230 230 230 229 229 229 229 229 230 230 230 230 230 231 232 231 231 231 232 233 235 234 233 230 228 230 230 226 221 219 224 228 225 227 227 225 223 220 221 224 225 226 221 215 213
281 274 269 265 261 257 254 250 246 244 243 242 242 242 241 239 238 238 238 238 238 238 237 236 236 236 236 236 235 235 235 234 234 234 234 234 233 233 234 234 233 232 231 230 230 229 230 230 230 229 229 229 229 229 230 229 229 230 231 231 231 232 233 234 234 232 230 227 227 228 224 218 215 218 223 224 227 228 224 219 215 216 220 223 222 218 213 210
285 278 272 267 263 259 256 252 249 245 244 243 241 241 241 240 239 238 238 238 237 237 238 238 236 236 236 236 236 235 235 234 234 234 235 234 233 233 233 234 234 233 232 231 230 230 230 230 231 230 230 230 229 229 229 229 229 229 230 230 231 232 233 234 234 232 229 226 225 226 224 218 214 214 219 222 223 227 226 218 212 214 219 220 217 214 211 208
285 280 275 270 265 261 257 254 251 247 244 243 242 241 240 240 239 239 238 238 237 237 238 238 237 237 236 236 236 236 235 235 234 234 235 235 234 233 233 233 234 234 233 233 232 231 230 230 231 231 230 230 230 230 229 229 229 228 229 229 230 232 233 234 234 232 229 226 223 224 224 219 214 212 215 219 218 221 224 218 212 215 219 217 213 213 211 208
286 280 275 271 266 262 258 255 252 249 246 244 242 240 239 239 239 239 239 238 237 236 237 238 238 237 237 237 237 236 236 235 234 234 235 235 234 234 233 233 233 233 233 232 232 231 231 231 230 231 232 231 231 231 230 230 229 228 229 229 229 231 232 233 234 232 230 226 224 224 223 221 217 214 214 216 218 219 219 216 213 215 219 215 209 211 212 207
287 280 274 270 266 263 259 255 252 250 247 245 243 241 239 238 238 237 238 237 237 236 235 236 237 238 238 237 237 237 236 236 235 235 235 235 234 234 234 233 233 233 232 232 231 231 231 231 230 230 230 231 231 231 231 231 230 229 229 228 229 229 231 232 233 233 230 227 225 224 222 221 218 215 214 213 216 219 218 216 213 214 217 213 207 210 211 207
291 282 275 269 264 261 259 256 252 250 248 246 244 243 240 238 237 237 236 236 235 235 235 236 237 238 238 237 237 237 237 237 236 236 236 235 235 235 235 234 234 233 232 232 231 231 231 231 230 230 229 229 230 230 230 230 230 230 229 229 229 229 230 231 232 232 231 227 226 225 221 219 217 215 215 213 210 215 220 219 215 212 214 213 209 209 210 208
296 286 277 270 263 260 257 255 252 250 248 246 244 243 242 239 237 236 236 235 234 234 235 235 237 237 238 237 237 237 237 237 237 236 237 236 236 235 235 234 234 233 233 232 232 232 231 231 231 231 231 230 230 230 229 228 229 229 228 228 229 228 229 229 230 230 230 228 227 225 221 217 215 215 217 214 208 209 217 221 217 213 212 212 210 208 207 209
301 291 280 271 264 260 256 253 251 249 247 245 244 243 242 240 239 237 237 236 235 235 235 235 236 236 237 237 236 236 237 237 237 237 237 237 237 236 235 234 233 234 234 233 232 232 232 232 231 231 231 231 231 230 229 228 228 228 227 227 227 227 227 227 227 227 228 228 227 226 223 216 213 217 218 215 209 207 213 220 220 216 213 211 210 207 205 210
306 296 285 275 267 261 257 253 249 248 246 245 244 242 241 241 240 239 238 237 236 235 234 233 234 235 236 237 236 235 236 237 237 237 237 238 238 237 236 235 234 234 235 234 233 233 233 232 231 230 230 230 230 230 230 229 229 229 228 227 227 227 226 225 225 225 226 226 226 226 222 216 213 216 219 216 211 207 209 217 221 218 215 213 210 207 207 212
311 301 289 280 271 263 258 254 249 247 245 244 243 242 242 241 241 239 238 236 234 233 233 233 234 234 235 236 236 235 236 237 237 237 238 238 238 238 237 236 235 235 236 235 234 233 233 233 232 231 230 231 231 231 231 230 230 229 228 228 228 228 227 225 224 224 224 225 226 226 223 218 214 215 218 217 212 207 205 213 221 219 215 215 211 209 210 211
315 306 294 284 275 266 259 254 250 247 245 244 243 242 242 241 241 239 237 236 235 234 234 234 234 235 235 235 235 236 236 237 237 238 238 237 238 238 237 236 236 236 236 236 235 233 233 233 233 231 230 230 230 231 231 231 230 229 228 228 228 228 228 226 223 223 223 223 225 226 224 219 215 214 217 217 214 210 204 208 219 219 215 216 214 212 211 209
318 311 300 288 278 269 261 255 251 248 246 244 243 242 241 241 240 239 237 237 237 236 235 235 235 236 236 235 235 236 236 236 236 237 238 238 237 237 236 236 236 236 236 236 235 234 233 234 233 231 230 229 228 229 230 231 231 230 229 228 227 228 228 226 224 223 222 222 223 225 224 220 216 214 215 216 215 213 207 206 214 219 217 217 216 215 213 209
320 315 304 291 281 273 264 257 252 248 246 244 243 242 241 240 240 239 238 237 237 237 235 235 236 236 237 236 235 235 236 235 235 235 237 238 237 236 235 235 235 235 236 236 235 234 233 234 233 231 230 229 228 228 229 230 230 229 229 229 228 228 228 227 224 223 222 221 222 223 224 222 218 215 215 215 214 214 210 206 210 216 217 218 217 217 216 213
321 317 310 296 284 276 268 260 254 250 247 244 242 240 239 239 239 239 239 238 238 239 237 236 235 236 237 237 236 235 236 236 235 235 237 238 238 236 234 234 234 234 235 236 235 233 233 233 233 231 230 229 228 228 228 229 229 229 228 228 228 228 227 227 225 223 222 221 221 221 223 222 219 215 214 215 214 215 212 207 207 212 216 217 217 216 217 215
323 319 314 300 286 278 271 263 256 251 247 244 241 239 238 238 238 238 238 238 239 239 239 237 235 236 238 237 236 236 236 237 236 236 236 238 238 237 234 233 233 233 234 235 234 233 232 232 233 232 230 229 228 227 227 227 228 228 227 227 227 227 226 225 225 223 222 221 220 220 221 222 221 216 214 215 214 214 214 208 205 209 213 215 217 216 216 216
326 322 316 305 290 279 271 265 258 252 248 246 243 241 239 238 238 238 238 238 239 239 240 239 237 237 238 238 237 236 235 237 238 237 236 237 238 238 236 234 233 232 234 234 234 234 233 232 233 234 231 229 228 227 227 227 227 228 228 227 228 228 226 224 223 222 220 219 219 219 219 221 222 218 215 215 214 213 214 210 206 207 209 212 215 216 216 217
329 325 319 310 297 281 271 265 260 254 250 247 245 243 242 240 239 239 239 238 238 239 240 240 239 239 239 238 238 237 235 235 237 238 238 238 238 238 237 235 234 233 233 235 234 233 233 231 231 233 232 230 228 228 228 228 228 228 229 229 228 228 227 226 223 221 219 217 217 217 216 219 221 220 217 215 214 213 214 213 209 207 207 208 212 216 217 216
332 328 321 313 301 286 272 265 260 255 251 249 246 244 243 242 241 240 240 239 239 239 239 240 240 240 240 240 239 239 237 236 237 238 239 238 237 237 237 236 236 234 234 235 235 234 233 231 230 231 232 230 229 228 227 227 227 226 226 228 227 226 226 226 224 222 220 218 217 217 215 216 219 220 218 216 214 212 212 213 212 209 206 205 208 214 217 215
335 331 324 316 305 289 276 267 261 255 252 250 247 246 244 243 242 242 242 241 240 240 239 239 240 240 240 240 240 239 239 239 238 238 239 239 238 237 236 235 236 236 234 234 236 235 234 232 230 230 231 231 229 228 227 226 225 225 224 225 226 225 225 226 225 223 220 219 218 217 215 215 218 219 218 216 214 212 211 212 213 211 207 204 204 210 216 215
338 334 327 319 308 295 283 272 264 257 253 251 249 248 246 245 244 244 244 243 242 242 242 241 241 242 241 241 241 240 239 240 240 240 240 240 239 237 236 234 234 234 234 234 234 235 234 232 230 229 230 230 229 228 227 226 225 225 224 224 225 225 224 224 224 223 221 219 219 218 215 216 219 220 219 217 215 212 211 211 213 212 209 205 203 206 214 216
341 337 331 322 312 303 291 278 269 262 256 253 251 249 248 246 245 245 245 245 245 244 244 243 243 243 243 243 243 242 241 240 241 242 242 242 240 238 236 235 233 233 233 234 233 233 233 232 230 228 229 230 229 228 227 226 225 225 225 224 224 225 225 223 223 222 221 219 219 219 216 216 219 222 221 219 217 214 212 212 214 214 211 208 204 204 210 215
346 342 336 327 317 307 297 286 276 268 261 258 254 252 251 249 247 246 246 246 246 246 246 246 245 244 245 245 245 244 244 243 243 243 243 243 243 240 238 235 234 233 233 233 234 234 233 232 230 228 228 229 229 229 227 226 224 224 224 224 224 225 225 224 222 221 221 219 218 218 217 216 219 221 221 220 220 218 215 213 214 215 213 211 209 206 208 214
351 347 341 334 325 313 303 294 284 276 269 264 260 257 256 254 252 250 250 249 248 249 248 248 247 246 246 247 246 246 245 245 244 244 243 243 243 242 240 237 235 234 233 233 233 234 234 233 230 228 227 228 229 229 228 227 225 224 223 223 224 224 225 224 222 220 219 219 218 217 217 216 218 220 220 220 220 220 218 216 215 216 214 212 213 210 207 211
355 353 347 341 333 323 313 303 294 286 278 272 268 264 261 259 257 255 254 253 251 250 249 249 249 249 248 248 247 247 246 245 245 244 244 243 243 242 241 238 236 234 233 233 232 232 233 234 232 228 226 226 228 229 228 227 225 225 224 223 224 224 224 223 222 220 218 219 218 218 216 216 218 219 219 220 219 219 219 217 216 216 215 213 214 214 210 208
358 357 353 348 343 335 326 316 307 296 286 279 274 269 266 264 262 260 258 257 256 256 255 254 253 251 250 249 248 248 247 247 246 246 245 244 244 243 242 241 239 237 234 234 234 233 232 233 233 230 226 225 227 228 228 227 225 224 224 223 223 225 224 223 221 220 218 217 218 219 217 216 217 217 217 219 219 218 218 218 216 216 215 215 215 216 214 209
360 359 357 354 351 346 336 326 316 306 295 287 280 274 270 268 266 265 265 264 264 262 260 257 253 252 250 250 250 250 250 250 250 249 248 247 246 245 245 244 243 241 238 236 236 235 233 233 234 232 228 225 226 227 228 227 225 223 223 222 222 223 224 223 221 220 218 216 216 218 217 216 217 216 215 217 219 218 217 217 216 215 214 215 216 216 216 213
1 1 360 357 355 352 346 338 329 319 308 300 292 285 280 275 273 272 270 268 265 262 259 257 255 255 255 254 254 254 254 254 253 253 253 252 251 249 247 246 244 243 241 238 236 236 235 233 233 234 230 226 225 226 227 227 226 223 222 222 222 222 222 221 220 220 219 217 215 216 217 218 218 216 213 214 216 217 216 216 216 214 213 214 216 216 217 215
Height
10921 10921 10922 10923 10924 10925 10926 10927 10929 10930 10931 10933 10934 10936 10938 10940 10942 10944 10946 10948 10950 10952 10953 10955 10957 10958 10959 10960 10960 10961 10963 10965 10967 10969 10971 10973 10974 10976 10978 10980 10982 10984 10986 10989 10990 10992 10994 10996 10997 10999 11000 11002 11004 11005 11007 11008 11009 11011 11012 11014 11015 11017 11018 11020 11022 11024 11025 11027 11026 11027 11031 11036 11039 11037 11033 11030 11028 11027 11027 11027 11024 11022 11021 11020 11020 11020 11019 11018
10917 10917 10918 10918 10919 10920 10921 10922 10923 10925 10926 10928 10929 10931 10933 10934 10936 10938 10941 10943 10945 10947 10949 10951 10953 10954 10956 10956 10957 10958 10959 10961 10963 10966 10968 10968 10970 10972 10974 10976 10979 10981 10983 10985 10986 10988 10991 10993 10994 10996 10997 10999 11001 11003 11005 11006 11007 11008 11010 11011 11013 11015 11017 11018 11020 11022 11023 11025 11026 11026 11029 11033 11034 11031 11028 11027 11026 11026 11027 11026 11024 11023 11022 11021 11021 11020 11019 11018
10912 10912 10913 10914 10914 10915 10915 10916 10918 10919 10920 10922 10924 10926 10928 10929 10931 10933 10935 10938 10940 10942 10944 10946 10948 10950 10951 10953 10954 10955 10956 10957 10959 10963 10964 10965 10967 10969 10970 10972 10975 10977 10979 10980 10983 10985 10988 10990 10992 10994 10995 10997 10999 11001 11002 11003 11005 11006 11007 11009 11010 11013 11015 11016 11018 11021 11022 11023 11023 11024 11026 11028 11028 11026 11024 11024 11025 11025 11025 11025 11023 11023 11022 11022 11021 11020 11019 11018
10906 10907 10907 10908 10909 10910 10910 10911 10912 10913 10915 10916 10918 10920 10922 10924 10925 10927 10930 10932 10935 10937 10939 10941 10943 10945 10947 10949 10950 10951 10953 10953 10956 10960 10960 10961 10964 10965 10966 10968 10971 10973 10975 10977 10980 10983 10985 10987 10989 10991 10992 10994 10997 10998 11000 11001 11003 11004 11005 11006 11008 11011 11012 11013 11016 11019 11020 11020 11020 11021 11023 11024 11024 11023 11023 11023 11024 11024 11024 11023 11022 11021 11021 11021 11021 11020 11019 11018
10900 10900 10901 10902 10903 10904 10905 10906 10906 10907 10909 10910 10912 10914 10916 10918 10920 10922 10925 10926 10929 10931 10933 10936 10938 10940 10942 10944 10946 10948 10948 10949 10953 10955 10954 10958 10960 10961 10963 10964 10966 10969 10971 10973 10977 10979 10981 10983 10986 10987 10989 10991 10993 10995 10997 10999 11000 11000 11002 11003 11006 11007 11008 11010 11013 11016 11017 11017 11018 11019 11020 11022 11022 11020 11021 11022 11022 11022 11022 11021 11021 11021 11020 11020 11019 11019 11018 11017
10893 10894 10894 10895 10896 10897 10898 10900 10901 10902 10903 10904 10906 10908 10910 10912 10914 10916 10919 10921 10923 10925 10927 10930 10933 10935 10937 10939 10941 10943 10944 10945 10950 10950 10950 10954 10956 10958 10960 10960 10962 10964 10967 10970 10973 10976 10977 10980 10982 10984 10986 10988 10990 10992 10994 10995 10996 10997 10998 11000 11002 11003 11004 11006 11009 11012 11013 11014 11017 11017 11018 11019 11019 11018 11017 11018 11019 11020 11020 11020 11020 11020 11019 11019 11019 11018 11018 11017
10886 10886 10887 10888 10889 10890 10892 10893 10894 10895 10896 10898 10900 10901 10903 10905 10908 10910 10912 10915 10917 10919 10922 10924 10927 10929 10932 10934 10936 10938 10939 10940 10944 10945 10947 10951 10951 10953 10956 10957 10958 10959 10963 10966 10969 10971 10973 10975 10977 10980 10982 10984 10986 10989 10990 10991 10992 10993 10995 10997 10998 10999 11001 11003 11005 11008 11010 11012 11014 11014 11014 11015 11015 11014 11014 11015 11017 11017 11018 11019 11019 11019 11018 11018 11018 11018 11018 11017
10877 10878 10879 10880 10881 10882 10884 10885 10887 10888 10889 10891 10893 10895 10897 10899 10901 10904 10906 10908 10911 10913 10915 10918 10921 10923 10926 10929 10930 10933 10933 10933 10939 10943 10944 10946 10946 10949 10952 10953 10954 10955 10959 10961 10964 10967 10968 10971 10973 10976 10978 10980 10983 10985 10986 10987 10988 10990 10992 10994 10994 10996 10998 11000 11002 11004 11007 11009 11010 11011 11012 11013 11014 11013 11012 11014 11015 11015 11015 11017 11017 11017 11017 11017 11018 11018 11017 11016
10868 10869 10870 10871 10872 10874 10876 10877 10879 10880 10882 10884 10886 10888 10890 10892 10894 10897 10899 10902 10904 10907 10909 10912 10914 10917 10920 10923 10925 10927 10926 10927 10936 10939 10938 10940 10942 10944 10947 10949 10951 10952 10954 10957 10959 10962 10964 10966 10969 10972 10975 10977 10979 10981 10982 10983 10984 10987 10989 10990 10990 10992 10995 10997 10998 11000 11003 11006 11007 11007 11010 11013 11012 11011 11012 11013 11013 11013 11013 11014 11015 11016 11016 11016 11016 11016 11016 11016
10859 10860 10861 10862 10863 10865 10866 10868 10870 10872 10874 10876 10878 10880 10882 10885 10887 10889 10892 10895 10897 10900 10903 10905 10907 10911 10914 10916 10919 10919 10919 10923 10931 10933 10932 10936 10938 10939 10942 10945 10947 10949 10950 10952 10955 10958 10960 10963 10965 10968 10970 10972 10975 10977 10977 10978 10981 10983 10985 10986 10988 10989 10992 10994 10996 10996 10999 11003 11004 11005 11008 11009 11008 11009 11011 11011 11011 11011 11012 11012 11013 11014 11015 11015 11015 11016 11015 11015
10848 10849 10851 10852 10854 10855 10857 10859 10861 10863 10865 10867 10869 10872 10874 10877 10879 10881 10884 10887 10890 10893 10896 10898 10901 10904 10906 10910 10912 10911 10914 10919 10924 10926 10927 10931 10933 10935 10937 10940 10942 10945 10946 10949 10951 10953 10956 10959 10961 10963 10965 10968 10970 10972 10973 10974 10978 10980 10982 10984 10985 10986 10988 10991 10992 10993 10995 10999 11001 11003 11004 11004 11004 11007 11009 11008 11009 11010 11011 11012 11012 11013 11014 11014 11015 11015 11015 11014
10837 10838 10839 10842 10844 10846 10847 10849 10851 10853 10856 10858 10860 10863 10866 10868 10871 10873 10876 10879 10882 10885 10888 10891 10894 10897 10900 10903 10904 10904 10910 10914 10916 10919 10922 10925 10928 10930 10932 10935 10938 10940 10942 10945 10946 10949 10952 10955 10957 10959 10961 10963 10965 10967 10968 10970 10973 10975 10977 10980 10982 10983 10984 10986 10989 10991 10992 10995 10997 10999 11001 11002 11003 11005 11006 11006 11006 11008 11010 11011 11012 11012 11012 11013 11014 11014 11014 11014
10824 10826 10828 10830 10832 10835 10837 10839 10841 10843 10846 10848 10851 10854 10857 10859 10862 10865 10868 10870 10874 10877 10880 10883 10887 10890 10893 10896 10896 10899 10904 10906 10908 10913 10916 10918 10922 10924 10927 10929 10932 10935 10937 10940 10942 10945 10948 10950 10953 10954 10957 10959 10960 10962 10963 10965 10968 10970 10973 10976 10978 10979 10980 10982 10986 10988 10990 10992 10994 10994 10997 11000 11001 11002 11004 11004 11004 11006 11008 11009 11010 11011 11012 11012 11013 11013 11013 11013
10811 10813 10815 10817 10820 10823 10826 10828 10830 10832 10835 10838 10840 10844 10847 10850 10853 10856 10859 10862 10865 10868 10872 10875 10879 10882 10886 10887 10890 10894 10896 10899 10903 10906 10909 10912 10915 10918 10921 10923 10927 10930 10932 10935 10938 10940 10943 10945 10948 10950 10953 10954 10956 10958 10959 10962 10964 10965 10969 10972 10974 10976 10978 10980 10982 10984 10987 10990 10991 10992 10994 10996 10998 11000 11002 11002 11002 11004 11006 11007 11008 11009 11011 11011 11012 11012 11012 11012
10798 10800 10801 10804 10807 10810 10813 10816 10818 10821 10824 10827 10830 10833 10837 10840 10843 10847 10850 10853 10856 10860 10863 10867 10870 10874 10877 10879 10883 10886 10889 10893 10896 10899 10903 10906 10908 10912 10915 10918 10921 10924 10927 10930 10932 10935 10938 10941 10943 10945 10948 10950 10952 10954 10956 10958 10959 10960 10964 10967 10970 10972 10974 10977 10979 10981 10983 10985 10988 10990 10992 10992 10994 10997 10998 11000 11001 11002 11003 11005 11006 11008 11009 11010 11010 11010 11011 11011
10784 10786 10788 10790 10793 10796 10799 10803 10805 10808 10811 10815 10818 10822 10826 10830 10833 10836 10840 10844 10847 10851 10854 10858 10862 10865 10869 10871 10876 10880 10882 10885 10888 10891 10895 10898 10902 10906 10909 10911 10913 10917 10920 10924 10927 10930 10933 10936 10938 10941 10944 10946 10948 10950 10953 10953 10952 10955 10959 10962 10965 10967 10970 10974 10975 10977 10979 10980 10983 10987 10990 10990 10991 10993 10995 10997 11000 11001 11002 11003 11005 11006 11007 11009 11009 11010 11010 11011
10769 10771 10773 10775 10778 10782 10785 10789 10792 10795 10798 10802 10806 10810 10815 10819 10822 10826 10830 10833 10838 10842 10845 10849 10853 10856 10860 10864 10868 10871 10873 10876 10880 10884 10887 10890 10895 10898 10900 10903 10906 10911 10915 10919 10921 10924 10927 10930 10933 10936 10940 10942 10944 10947 10948 10946 10946 10951 10956 10958 10961 10963 10966 10970 10971 10973 10975 10977 10978 10983 10987 10986 10987 10990 10992 10994 10996 10998 11000 11000 11003 11005 11006 11007 11008 11009 11010 11010
10754 10755 10758 10760 10763 10767 10771 10775 10778 10782 10785 10789 10793 10798 10803 10807 10812 10815 10819 10823 10827 10832 10836 10840 10844 10848 10853 10855 10859 10862 10864 10868 10872 10875 10879 10882 10887 10889 10892 10896 10900 10904 10908 10912 10915 10917 10921 10925 10928 10932 10935 10937 10938 10941 10941 10940 10943 10949 10952 10954 10956 10959 10962 10965 10967 10969 10971 10973 10975 10978 10983 10984 10984 10987 10989 10991 10992 10994 10996 10997 11000 11002 11003 11005 11007 11008 11009 11010
10741 10742 10743 10746 10749 10752 10756 10760 10764 10768 10772 10776 10780 10785 10790 10795 10800 10804 10808 10812 10817 10821 10826 10830 10834 10839 10844 10846 10849 10853 10856 10860 10863 10867 10870 10874 10878 10881 10884 10889 10893 10897 10901 10904 10908 10911 10915 10919 10923 10927 10929 10929 10931 10934 10934 10936 10941 10946 10948 10950 10952 10955 10958 10960 10963 10966 10967 10969 10971 10974 10979 10981 10981 10983 10986 10988 10989 10991 10993 10994 10996 10999 11001 11003 11005 11007 11008 11009
10730 10730 10731 10733 10736 10739 10742 10746 10751 10754 10759 10763 10767 10772 10777 10783 10788 10792 10796 10801 10806 10811 10815 10820 10823 10829 10834 10836 10840 10845 10847 10851 10855 10857 10861 10865 10869 10873 10877 10881 10885 10889 10894 10897 10900 10904 10909 10914 10918 10920 10920 10921 10925 10928 10930 10935 10939 10942 10945 10947 10948 10951 10955 10956 10958 10963 10963 10965 10967 10970 10975 10978 10978 10981 10983 10984 10985 10988 10990 10992 10993 10995 10998 11001 11003 11005 11007 11008
10720 10719 10720 10721 10723 10726 10730 10733 10737 10741 10746 10750 10755 10759 10764 10770 10775 10779 10784 10790 10794 10800 10805 10809 10813 10819 10823 10826 10831 10836 10839 10843 10846 10848 10852 10856 10860 10865 10869 10873 10878 10882 10886 10889 10893 10898 10904 10909 10911 10910 10911 10916 10920 10923 10926 10931 10935 10938 10942 10943 10944 10948 10951 10951 10954 10958 10960 10961 10963 10966 10971 10974 10975 10979 10981 10981 10982 10985 10988 10990 10991 10992 10995 10998 11001 11004 11005 11006
10710 10710 10709 10710 10712 10714 10718 10721 10725 10729 10734 10738 10743 10747 10751 10757 10762 10766 10772 10777 10782 10788 10794 10798 10803 10808 10812 10816 10821 10826 10830 10833 10837 10840 10843 10847 10851 10856 10861 10865 10871 10874 10877 10881 10886 10891 10898 10902 10901 10901 10905 10910 10914 10918 10922 10926 10929 10934 10937 10939 10941 10944 10946 10946 10948 10952 10956 10958 10959 10962 10967 10970 10973 10976 10978 10978 10979 10981 10985 10987 10988 10990 10992 10996 10999 11001 11002 11004
10702 10701 10700 10700 10701 10703 10706 10709 10713 10717 10722 10727 10731 10735 10739 10744 10749 10754 10759 10764 10770 10776 10781 10787 10793 10797 10801 10806 10810 10816 10820 10823 10829 10832 10833 10837 10843 10849 10853 10857 10862 10866 10869 10874 10878 10884 10890 10891 10891 10894 10899 10904 10908 10912 10916 10921 10925 10929 10933 10935 10937 10938 10939 10940 10943 10948 10953 10955 10956 10960 10964 10967 10970 10972 10974 10977 10977 10978 10980 10983 10985 10987 10990 10993 10996 10998 11000 11002
10694 10693 10692 10691 10691 10692 10694 10697 10701 10705 10710 10715 10718 10724 10728 10732 10737 10742 10747 10752 10757 10763 10769 10775 10781 10785 10789 10794 10799 10805 10808 10813 10821 10824 10824 10829 10835 10841 10844 10847 10853 10857 10860 10865 10869 10875 10880 10881 10883 10888 10893 10897 10901 10905 10910 10915 10919 10923 10927 10930 10932 10932 10933 10936 10940 10944 10950 10953 10954 10958 10962 10966 10968 10968 10971 10974 10975 10975 10977 10979 10983 10986 10989 10992 10993 10995 10998 11000
10687 10685 10684 10683 10682 10682 10683 10686 10689 10693 10698 10702 10706 10711 10717 10721 10725 10730 10736 10740 10745 10752 10757 10763 10769 10772 10776 10782 10787 10792 10796 10805 10813 10812 10814 10821 10827 10831 10834 10837 10843 10847 10851 10855 10860 10866 10871 10873 10876 10881 10886 10889 10894 10899 10904 10908 10913 10917 10921 10924 10926 10927 10929 10932 10936 10940 10946 10950 10951 10955 10959 10963 10965 10965 10968 10971 10972 10973 10974 10977 10980 10984 10986 10989 10991 10993 10996 10998
10679 10677 10676 10674 10673 10673 10673 10675 10679 10682 10685 10689 10693 10698 10703 10710 10714 10719 10725 10728 10734 10741 10745 10751 10757 10759 10764 10770 10775 10780 10787 10796 10801 10800 10804 10812 10817 10821 10824 10827 10832 10837 10841 10846 10852 10859 10862 10864 10869 10873 10878 10881 10886 10892 10896 10901 10906 10910 10914 10917 10919 10922 10924 10927 10931 10937 10942 10946 10949 10953 10957 10960 10962 10964 10966 10968 10969 10969 10971 10974 10978 10981 10983 10985 10988 10991 10993 10996
10671 10669 10667 10666 10665 10665 10665 10666 10669 10672 10674 10676 10681 10686 10690 10697 10702 10707 10713 10716 10723 10731 10733 10739 10744 10747 10753 10758 10762 10769 10776 10782 10787 10791 10795 10801 10807 10811 10814 10817 10822 10826 10831 10837 10845 10851 10854 10857 10861 10865 10869 10874 10879 10885 10889 10894 10899 10903 10907 10910 10913 10916 10919 10921 10925 10932 10938 10942 10947 10950 10953 10957 10960 10963 10964 10965 10967 10967 10968 10972 10975 10978 10980 10982 10985 10988 10991 10994
10663 10660 10659 10658 10656 10656 10656 10657 10659 10662 10664 10665 10669 10673 10677 10684 10689 10695 10700 10704 10712 10720 10722 10725 10730 10735 10741 10746 10750 10756 10763 10767 10775 10783 10785 10789 10796 10800 10803 10808 10811 10816 10823 10831 10838 10843 10846 10848 10851 10855 10861 10868 10873 10877 10881 10886 10892 10896 10898 10903 10907 10910 10913 10917 10921 10929 10934 10939 10944 10947 10949 10953 10957 10960 10961 10962 10964 10965 10966 10969 10972 10975 10977 10980 10983 10986 10989 10991
10655 10652 10650 10649 10648 10647 10647 10649 10651 10652 10655 10655 10657 10662 10666 10671 10677 10682 10687 10691 10699 10709 10711 10711 10717 10725 10729 10734 10738 10743 10750 10756 10765 10773 10772 10776 10784 10787 10792 10798 10801 10806 10814 10821 10827 10831 10835 10839 10844 10851 10857 10863 10866 10869 10874 10879 10884 10888 10891 10896 10900 10904 10909 10913 10917 10923 10929 10936 10941 10943 10946 10950 10953 10957 10959 10961 10962 10961 10962 10965 10969 10972 10974 10977 10980 10983 10986 10989
10646 10643 10641 10640 10639 10638 10638 10641 10643 10643 10645 10646 10648 10651 10654 10659 10664 10669 10673 10678 10686 10694 10697 10700 10708 10714 10716 10721 10726 10732 10739 10745 10754 10760 10757 10762 10772 10774 10779 10786 10789 10794 10802 10810 10816 10820 10824 10830 10837 10843 10849 10853 10856 10861 10867 10871 10876 10880 10883 10888 10893 10898 10903 10906 10911 10917 10925 10933 10937 10938 10942 10946 10949 10953 10957 10959 10959 10958 10959 10963 10966 10969 10972 10975 10977 10980 10983 10986
10637 10634 10633 10631 10630 10629 10629 10632 10634 10635 10636 10638 10639 10641 10644 10648 10651 10655 10659 10665 10672 10678 10685 10694 10701 10701 10702 10707 10714 10721 10728 10734 10741 10745 10744 10751 10760 10763 10768 10774 10776 10782 10791 10800 10805 10809 10815 10821 10827 10833 10838 10842 10845 10851 10857 10862 10868 10871 10875 10881 10887 10893 10896 10900 10906 10913 10920 10928 10930 10932 10935 10940 10944 10949 10951 10954 10956 10956 10957 10959 10962 10966 10968 10971 10974 10977 10980 10983
10628 10626 10624 10622 10621 10620 10620 10623 10625 10626 10627 10629 10630 10632 10634 10637 10640 10643 10647 10654 10661 10669 10679 10689 10689 10686 10687 10693 10702 10711 10718 10723 10728 10731 10734 10741 10748 10751 10755 10757 10762 10771 10780 10788 10794 10800 10807 10814 10820 10826 10831 10834 10837 10841 10846 10851 10856 10860 10867 10875 10880 10885 10888 10893 10901 10907 10913 10920 10923 10924 10928 10935 10941 10943 10944 10948 10953 10954 10954 10954 10958 10962 10964 10968 10971 10974 10978 10981
10620 10617 10615 10613 10612 10612 10612 10614 10616 10617 10618 10620 10621 10623 10625 10627 10630 10634 10639 10647 10656 10664 10672 10675 10672 10670 10673 10680 10691 10703 10707 10709 10713 10719 10724 10730 10734 10735 10736 10740 10751 10763 10769 10778 10787 10792 10799 10806 10812 10817 10820 10823 10828 10832 10837 10842 10846 10850 10859 10865 10869 10874 10879 10886 10894 10899 10906 10911 10915 10917 10922 10931 10938 10939 10940 10944 10948 10951 10952 10952 10954 10957 10960 10964 10968 10971 10975 10978
10612 10609 10607 10606 10605 10604 10603 10605 10607 10608 10609 10611 10612 10614 10617 10619 10622 10628 10635 10642 10648 10652 10655 10655 10654 10658 10663 10670 10681 10690 10692 10694 10702 10710 10714 10718 10718 10718 10721 10732 10747 10756 10760 10768 10777 10781 10787 10792 10797 10802 10806 10811 10817 10822 10827 10833 10838 10844 10852 10856 10860 10865 10870 10878 10886 10892 10898 10902 10905 10909 10916 10926 10933 10934 10935 10938 10942 10946 10950 10950 10950 10953 10957 10960 10964 10968 10972 10975
10605 10602 10600 10598 10598 10596 10596 10597 10598 10599 10601 10602 10604 10606 10610 10613 10616 10622 10627 10631 10633 10635 10637 10640 10644 10649 10655 10661 10668 10676 10680 10685 10695 10700 10702 10704 10702 10702 10712 10725 10738 10746 10749 10757 10765 10770 10775 10779 10783 10791 10798 10805 10812 10816 10819 10825 10831 10838 10844 10849 10853 10858 10863 10871 10879 10885 10889 10894 10899 10904 10913 10923 10927 10929 10930 10933 10938 10942 10946 10947 10946 10949 10954 10957 10961 10965 10968 10971
10598 10596 10593 10592 10591 10590 10589 10589 10590 10591 10592 10594 10596 10599 10603 10606 10610 10614 10617 10619 10621 10623 10627 10632 10637 10639 10643 10649 10657 10666 10672 10677 10685 10687 10686 10689 10685 10687 10703 10717 10728 10735 10738 10744 10749 10755 10763 10765 10769 10779 10788 10794 10801 10804 10808 10816 10823 10830 10836 10841 10845 10849 10854 10862 10871 10876 10880 10887 10893 10898 10906 10915 10920 10923 10926 10929 10934 10937 10941 10944 10943 10946 10951 10954 10957 10960 10963 10966
10591 10589 10587 10585 10584 10583 10582 10582 10583 10584 10585 10587 10590 10593 10597 10599 10602 10605 10608 10611 10612 10614 10619 10623 10628 10630 10632 10639 10650 10658 10659 10663 10672 10673 10670 10671 10668 10676 10696 10709 10718 10724 10725 10729 10734 10742 10751 10751 10753 10764 10772 10779 10786 10792 10798 10805 10813 10820 10827 10831 10835 10839 10844 10852 10861 10866 10873 10881 10886 10890 10897 10905 10911 10916 10920 10924 10929 10932 10937 10940 10941 10944 10947 10950 10952 10955 10958 10962
10585 10583 10581 10579 10577 10576 10576 10576 10577 10578 10579 10582 10583 10586 10590 10592 10594 10595 10599 10603 10603 10605 10611 10615 10619 10620 10621 10630 10640 10644 10643 10649 10659 10659 10655 10654 10653 10667 10690 10699 10704 10712 10712 10714 10720 10729 10736 10735 10737 10749 10758 10766 10777 10784 10790 10796 10802 10809 10815 10819 10824 10830 10835 10843 10852 10859 10866 10873 10878 10884 10891 10898 10905 10910 10914 10918 10922 10925 10929 10934 10938 10940 10942 10945 10948 10951 10954 10957
10579 10577 10576 10573 10571 10570 10570 10570 10571 10572 10574 10576 10577 10580 10583 10583 10585 10588 10591 10595 10595 10598 10603 10607 10610 10610 10611 10619 10627 10631 10634 10639 10645 10646 10642 10641 10643 10657 10678 10685 10689 10697 10697 10697 10704 10712 10718 10720 10724 10735 10746 10756 10766 10774 10779 10784 10789 10793 10800 10807 10813 10819 10826 10835 10844 10852 10858 10864 10871 10877 10884 10890 10896 10903 10908 10911 10914 10918 10921 10927 10933 10935 10937 10940 10944 10947 10950 10952
10573 10571 10570 10568 10566 10565 10564 10564 10565 10567 10568 10569 10571 10573 10575 10576 10578 10581 10584 10587 10589 10590 10593 10596 10601 10602 10602 10609 10615 10621 10625 10627 10630 10631 10629 10629 10632 10645 10662 10670 10675 10682 10682 10682 10687 10694 10703 10711 10715 10722 10733 10744 10751 10757 10762 10766 10770 10775 10785 10794 10799 10805 10815 10824 10833 10842 10850 10858 10864 10870 10877 10882 10888 10895 10900 10901 10904 10909 10914 10920 10927 10930 10931 10935 10939 10943 10944 10946
10569 10566 10564 10563 10562 10560 10559 10559 10560 10561 10562 10563 10565 10567 10569 10570 10572 10575 10577 10580 10581 10582 10584 10587 10593 10595 10594 10599 10605 10609 10614 10614 10613 10614 10614 10617 10625 10636 10648 10656 10662 10668 10669 10668 10673 10682 10692 10704 10708 10708 10718 10730 10736 10744 10750 10754 10761 10769 10778 10786 10790 10796 10805 10811 10819 10827 10835 10844 10852 10860 10869 10874 10878 10884 10887 10889 10895 10901 10907 10913 10919 10923 10926 10929 10932 10935 10937 10941
10564 10561 10559 10558 10557 10556 10555 10554 10555 10556 10557 10558 10560 10561 10562 10564 10567 10569 10570 10572 10573 10574 10576 10579 10584 10585 10586 10591 10594 10597 10602 10604 10601 10600 10603 10610 10619 10627 10634 10640 10647 10655 10657 10654 10659 10670 10678 10688 10693 10693 10701 10714 10724 10733 10739 10745 10754 10765 10771 10775 10779 10785 10791 10796 10804 10812 10821 10832 10840 10849 10859 10865 10869 10874 10878 10882 10888 10894 10901 10907 10912 10917 10921 10923 10926 10929 10930 10936
10560 10557 10555 10553 10552 10551 10550 10550 10550 10552 10552 10553 10554 10555 10556 10559 10560 10562 10562 10564 10566 10568 10570 10572 10574 10576 10579 10581 10584 10586 10590 10593 10592 10591 10593 10599 10608 10614 10621 10630 10635 10640 10644 10643 10647 10654 10660 10668 10679 10682 10687 10699 10710 10718 10723 10728 10737 10746 10751 10753 10757 10765 10773 10781 10791 10802 10816 10828 10833 10840 10852 10858 10858 10861 10866 10870 10876 10884 10891 10897 10902 10907 10913 10917 10921 10923 10924 10930
10556 10553 10551 10549 10548 10547 10546 10546 10546 10547 10547 10548 10549 10549 10551 10553 10554 10555 10556 10557 10560 10561 10563 10565 10565 10567 10571 10572 10574 10577 10580 10582 10582 10582 10582 10588 10597 10603 10610 10620 10624 10624 10629 10633 10635 10639 10644 10654 10667 10673 10675 10682 10693 10700 10704 10709 10716 10723 10730 10735 10742 10752 10763 10771 10782 10796 10812 10821 10825 10833 10846 10849 10843 10844 10849 10855 10863 10872 10878 10884 10889 10895 10903 10910 10916 10919 10921 10926
10553 10550 10547 10545 10544 10543 10543 10542 10542 10542 10543 10543 10544 10545 10546 10548 10549 10549 10550 10551 10553 10554 10556 10558 10558 10560 10562 10563 10564 10568 10571 10572 10572 10573 10575 10579 10586 10592 10599 10607 10610 10610 10614 10618 10620 10621 10626 10636 10650 10658 10660 10664 10674 10681 10686 10693 10703 10713 10721 10728 10736 10743 10750 10760 10773 10790 10805 10813 10819 10828 10839 10842 10835 10833 10840 10847 10854 10861 10867 10874 10880 10886 10894 10901 10908 10913 10916 10921
10550 10547 10544 10542 10540 10539 10539 10539 10538 10538 10539 10539 10540 10540 10542 10543 10543 10544 10544 10545 10546 10547 10549 10550 10551 10552 10553 10554 10556 10558 10561 10563 10563 10565 10567 10569 10574 10581 10588 10592 10595 10597 10599 10602 10604 10606 10610 10620 10633 10643 10648 10652 10658 10665 10671 10682 10695 10705 10710 10718 10727 10730 10736 10750 10766 10780 10793 10804 10814 10823 10832 10835 10828 10827 10837 10844 10849 10855 10861 10868 10875 10881 10888 10897 10905 10911 10913 10917
10548 10544 10541 10539 10537 10536 10535 10535 10534 10534 10535 10535 10536 10536 10537 10538 10539 10539 10539 10540 10540 10541 10542 10543 10544 10545 10545 10546 10548 10549 10552 10554 10555 10557 10558 10560 10564 10569 10575 10579 10583 10585 10588 10590 10592 10594 10598 10607 10619 10630 10637 10641 10643 10649 10657 10667 10679 10688 10696 10707 10716 10719 10725 10740 10755 10770 10782 10794 10806 10814 10820 10824 10819 10820 10832 10841 10846 10853 10858 10864 10871 10877 10887 10899 10907 10911 10913 10915
10546 10542 10539 10536 10535 10533 10532 10531 10531 10531 10531 10531 10532 10532 10532 10533 10533 10534 10534 10535 10535 10535 10536 10536 10537 10538 10538 10539 10540 10541 10543 10545 10546 10547 10549 10551 10553 10556 10561 10566 10569 10573 10576 10578 10581 10582 10587 10595 10605 10615 10623 10627 10629 10635 10643 10654 10666 10676 10685 10695 10701 10704 10712 10725 10741 10757 10770 10781 10792 10798 10805 10812 10810 10812 10824 10832 10838 10848 10854 10860 10866 10872 10884 10894 10899 10904 10911 10915
10545 10541 10537 10535 10533 10531 10530 10529 10528 10528 10528 10528 10528 10528 10528 10528 10528 10529 10528 10529 10529 10529 10529 10530 10530 10531 10531 10531 10532 10532 10534 10535 10536 10537 10539 10540 10542 10545 10548 10551 10555 10559 10563 10566 10568 10571 10577 10583 10588 10598 10609 10614 10617 10621 10628 10640 10654 10664 10674 10685 10690 10692 10701 10716 10732 10748 10760 10772 10782 10785 10792 10799 10799 10803 10814 10819 10826 10838 10846 10852 10859 10867 10877 10885 10890 10897 10906 10914
10543 10539 10536 10533 10531 10529 10527 10526 10526 10525 10525 10525 10524 10524 10524 10524 10523 10523 10523 10523 10523 10522 10523 10523 10523 10523 10523 10522 10523 10524 10525 10526 10527 10528 10530 10531 10532 10534 10537 10539 10543 10546 10551 10556 10557 10560 10568 10572 10573 10582 10596 10604 10606 10609 10614 10625 10639 10649 10660 10672 10679 10682 10692 10707 10722 10735 10748 10762 10769 10770 10777 10784 10784 10792 10805 10809 10816 10827 10833 10841 10850 10860 10870 10878 10884 10891 10898 10907
10542 10538 10534 10531 10529 10527 10526 10524 10524 10523 10522 10522 10521 10520 10520 10519 10519 10518 10518 10517 10517 10517 10516 10516 10515 10514 10515 10515 10516 10517 10517 10518 10518 10519 10520 10521 10523 10526 10528 10530 10532 10535 10541 10546 10547 10550 10557 10561 10562 10569 10583 10593 10595 10595 10600 10609 10620 10632 10644 10656 10664 10670 10679 10694 10708 10718 10729 10742 10749 10751 10761 10766 10766 10776 10791 10798 10805 10814 10821 10830 10840 10851 10861 10869 10875 10880 10887 10897
10541 10537 10533 10530 10527 10526 10524 10522 10521 10520 10520 10519 10518 10517 10516 10515 10514 10514 10513 10512 10511 10510 10509 10509 10508 10509 10510 10510 10510 10510 10510 10510 10510 10511 10511 10512 10514 10517 10518 10520 10521 10524 10529 10533 10536 10539 10544 10550 10553 10557 10569 10581 10583 10582 10587 10593 10601 10618 10634 10644 10650 10656 10664 10677 10691 10701 10712 10724 10731 10738 10748 10753 10752 10761 10775 10785 10792 10800 10808 10818 10828 10838 10849 10857 10864 10870 10877 10886